Flag for Pakistan Weather past 2 weeks in Peshawar, Pakistan

Now
88 °F

Broken clouds.


Feels Like: 98 °F
Forecast: 81 / 98 °F
Wind: 12 mph from Northeast

Location: Peshawar Airport

Current Time: Jul 29, 2014 at 7:37:11 PM

Latest Report: Jul 29, 2014 at 7:00 PM


Visibility: 2 mi

Pressure: 29.56 "Hg

Humidity: 66%

Dew point: 75 °F

Location of PeshawarLocation

Historic Weather in Peshawar — Graph

°F

Peshawar temperature yesterday

Maximum temperature yesterday: 93 °F (at 2:00 PM)
Minimum temperature yesterday: 81 °F (at 5:00 AM)
Average temperature yesterday: 86 °F

Past Weeks' High & Low Weather Summary

 TemperatureHumidityPressure
High106 °F (Jul 21, 4:00 PM)100% (Jul 29, 11:00 AM)29.71 "Hg (Jul 29, 11:00 AM)
Low77 °F (Jul 17, 9:00 AM)36% (Jul 21, 4:00 PM)29.33 "Hg (Jul 15, 6:00 PM)
Average89 °F66%29.49 "Hg
* Reported Jul 14 6:00 PM — Jul 29 6:00 PM, Peshawar, Weather by CustomWeather, © 2014

Note: Actual official high and low records may vary slightly from our data, if they occured in-between our weather recording intervals... More about our weather records

Advertising

Peshawar weather history for previous 24 hours

 ConditionsComfort  
Time TempWeatherWind HumidityBarometerVisibility
6:00 PM
Jul 29
90 °FBroken clouds.9 mph63%29.53 "Hg3 mi
5:00 PM91 °FBroken clouds.12 mph63%29.53 "Hg3 mi
4:00 PM91 °FBroken clouds.9 mph63%29.53 "Hg3 mi
3:00 PM88 °FBroken clouds.12 mph70%29.56 "Hg3 mi
2:00 PM90 °FBroken clouds.14 mph67%29.56 "Hg3 mi
1:00 PM90 °FHot.N/A67%29.59 "HgN/A
12:00 PM88 °FWarm.N/A70%29.59 "HgN/A
11:00 AM88 °FWarm.N/A100%29.59 "HgN/A
10:10 AM84 °FWarm.N/A79%29.59 "HgN/A
9:00 AM82 °FWarm.N/A84%29.56 "HgN/A
8:00 AM81 °FWarm.N/A89%29.56 "HgN/A
7:00 AM79 °FWarm.N/A89%29.56 "HgN/A
6:00 AM79 °FWarm.N/A89%29.53 "HgN/A
5:00 AM79 °FWarm.N/A89%29.53 "HgN/A
4:00 AM79 °FWarm.N/A89%29.53 "HgN/A
3:00 AM79 °FWarm.N/A89%29.53 "HgN/A
2:00 AM79 °FWarm.N/A89%29.56 "HgN/A
1:00 AM79 °FWarm.N/A89%29.53 "HgN/A
12:00 AM82 °FWarm.N/A84%29.53 "HgN/A
11:00 PM
Jul 28
82 °FWarm.N/A79%29.56 "HgN/A
10:00 PM88 °FWarm.N/A70%29.50 "HgN/A
9:00 PM88 °FWarm.N/A75%29.45 "HgN/A
8:00 PM88 °FSleet. Overcast.N/A70%29.45 "HgN/A
7:00 PM90 °FHot.N/A67%29.45 "HgN/A
Weather by CustomWeather, © 2014

See weather overviewHow to use our weather pages